TimeCDT,TemperatureF,Dew PointF,Humidity,Sea Level PressureIn,VisibilityMPH,Wind Direction,Wind SpeedMPH,Gust SpeedMPH,PrecipitationIn,Events,Conditions,WindDirDegrees,DateUTC
12:13 AM,51.8,48.2,88,29.82,10.0,Calm,Calm,-,N/A,,Clear,0,2012-09-06 05:13:00
12:33 AM,48.2,46.4,93,29.83,10.0,Calm,Calm,-,N/A,,Clear,0,2012-09-06 05:33:00
12:52 AM,48.2,46.4,93,29.83,10.0,Calm,Calm,-,N/A,,Clear,0,2012-09-06 05:52:00
1:13 AM,48.2,46.4,93,29.83,10.0,Calm,Calm,-,N/A,,Clear,0,2012-09-06 06:13:00
1:33 AM,48.2,46.4,93,29.83,10.0,Calm,Calm,-,N/A,,Clear,0,2012-09-06 06:33:00
1:52 AM,48.2,46.4,93,29.83,10.0,Calm,Calm,-,N/A,,Clear,0,2012-09-06 06:52:00
2:13 AM,50.0,46.4,87,29.83,10.0,Calm,Calm,-,N/A,,Clear,0,2012-09-06 07:13:00
2:32 AM,48.2,46.4,93,29.83,10.0,Calm,Calm,-,N/A,,Scattered Clouds,0,2012-09-06 07:32:00
2:53 AM,48.2,46.4,93,29.83,10.0,Calm,Calm,-,N/A,,Clear,0,2012-09-06 07:53:00
3:13 AM,48.2,46.4,93,29.84,10.0,Calm,Calm,-,N/A,,Clear,0,2012-09-06 08:13:00
3:33 AM,48.2,46.4,93,29.84,10.0,Calm,Calm,-,N/A,,Clear,0,2012-09-06 08:33:00
3:53 AM,48.2,46.4,93,29.84,10.0,Calm,Calm,-,N/A,,Clear,0,2012-09-06 08:53:00
4:13 AM,46.4,44.6,93,29.84,10.0,Calm,Calm,-,N/A,,Clear,0,2012-09-06 09:13:00
4:32 AM,44.6,44.6,100,29.85,10.0,Calm,Calm,-,N/A,,Clear,0,2012-09-06 09:32:00
4:53 AM,44.6,44.6,100,29.85,10.0,Calm,Calm,-,N/A,,Clear,0,2012-09-06 09:53:00
5:13 AM,46.4,44.6,93,29.85,10.0,Calm,Calm,-,N/A,,Clear,0,2012-09-06 10:13:00
5:32 AM,46.4,44.6,93,29.86,10.0,Calm,Calm,-,N/A,,Clear,0,2012-09-06 10:32:00
5:53 AM,46.4,44.6,93,29.86,10.0,Calm,Calm,-,N/A,,Clear,0,2012-09-06 10:53:00
6:13 AM,46.4,44.6,93,29.87,10.0,SW,3.5,-,N/A,,Clear,220,2012-09-06 11:13:00
6:32 AM,46.4,44.6,93,29.87,10.0,Calm,Calm,-,N/A,,Clear,0,2012-09-06 11:32:00
6:53 AM,46.4,44.6,93,29.87,10.0,Calm,Calm,-,N/A,,Clear,0,2012-09-06 11:53:00
7:13 AM,46.4,46.4,100,29.88,10.0,Calm,Calm,-,N/A,,Clear,0,2012-09-06 12:13:00
7:32 AM,48.2,46.4,93,29.88,10.0,Calm,Calm,-,N/A,,Clear,0,2012-09-06 12:32:00
7:53 AM,50.0,48.2,94,29.89,10.0,Calm,Calm,-,N/A,,Clear,0,2012-09-06 12:53:00
8:13 AM,53.6,50.0,88,29.89,10.0,Calm,Calm,-,N/A,,Clear,0,2012-09-06 13:13:00
8:32 AM,53.6,51.8,94,29.89,10.0,Calm,Calm,-,N/A,,Clear,0,2012-09-06 13:32:00
8:53 AM,57.2,51.8,82,29.89,10.0,WSW,5.8,-,N/A,,Clear,240,2012-09-06 13:53:00
9:13 AM,59.0,51.8,77,29.89,10.0,West,6.9,-,N/A,,Clear,270,2012-09-06 14:13:00
9:32 AM,62.6,50.0,63,29.89,10.0,West,5.8,-,N/A,,Scattered Clouds,280,2012-09-06 14:32:00
9:53 AM,62.6,46.4,55,29.89,10.0,WNW,6.9,-,N/A,,Scattered Clouds,290,2012-09-06 14:53:00
10:13 AM,64.4,46.4,52,29.89,10.0,WNW,5.8,-,N/A,,Clear,300,2012-09-06 15:13:00
10:32 AM,62.6,46.4,55,29.89,10.0,NW,6.9,-,N/A,,Clear,320,2012-09-06 15:32:00
10:53 AM,64.4,44.6,49,29.90,10.0,West,11.5,16.1,N/A,,Clear,270,2012-09-06 15:53:00
11:13 AM,64.4,44.6,49,29.90,10.0,WNW,4.6,-,N/A,,Clear,300,2012-09-06 16:13:00
11:32 AM,64.4,46.4,52,29.90,10.0,WNW,9.2,-,N/A,,Clear,300,2012-09-06 16:32:00
11:53 AM,64.4,46.4,52,29.90,10.0,West,11.5,19.6,N/A,,Scattered Clouds,280,2012-09-06 16:53:00
12:13 PM,64.4,46.4,52,29.91,10.0,West,11.5,16.1,N/A,,Scattered Clouds,280,2012-09-06 17:13:00
12:33 PM,62.6,46.4,55,29.91,10.0,WNW,10.4,16.1,N/A,Rain,Light Rain,290,2012-09-06 17:33:00
12:53 PM,62.6,46.4,55,29.91,10.0,West,10.4,-,N/A,Rain,Light Rain,270,2012-09-06 17:53:00
1:12 PM,62.6,48.2,59,29.90,10.0,WNW,6.9,-,N/A,,Mostly Cloudy,290,2012-09-06 18:12:00
1:33 PM,62.6,48.2,59,29.90,10.0,NW,10.4,-,N/A,,Mostly Cloudy,310,2012-09-06 18:33:00
1:53 PM,64.4,48.2,56,29.90,10.0,WNW,6.9,-,N/A,,Scattered Clouds,290,2012-09-06 18:53:00
2:12 PM,62.6,50.0,63,29.89,10.0,West,8.1,-,N/A,,Mostly Cloudy,270,2012-09-06 19:12:00
2:33 PM,62.6,50.0,63,29.89,10.0,NW,6.9,-,N/A,,Mostly Cloudy,320,2012-09-06 19:33:00
2:53 PM,62.6,50.0,63,29.89,10.0,NW,4.6,-,N/A,,Scattered Clouds,310,2012-09-06 19:53:00
3:12 PM,62.6,48.2,59,29.89,10.0,West,15.0,19.6,N/A,,Scattered Clouds,260,2012-09-06 20:12:00
3:33 PM,62.6,48.2,59,29.88,10.0,West,11.5,19.6,N/A,,Clear,260,2012-09-06 20:33:00
3:53 PM,62.6,48.2,59,29.88,10.0,West,13.8,23.0,N/A,,Mostly Cloudy,270,2012-09-06 20:53:00
4:12 PM,60.8,48.2,63,29.88,10.0,West,11.5,18.4,N/A,,Overcast,270,2012-09-06 21:12:00
4:33 PM,60.8,48.2,63,29.88,10.0,West,9.2,-,N/A,,Overcast,280,2012-09-06 21:33:00
4:53 PM,62.6,50.0,63,29.88,10.0,West,10.4,-,N/A,,Scattered Clouds,280,2012-09-06 21:53:00
5:12 PM,60.8,50.0,68,29.88,10.0,WNW,8.1,-,N/A,,Scattered Clouds,290,2012-09-06 22:12:00
5:33 PM,60.8,50.0,68,29.88,10.0,West,8.1,17.3,N/A,,Overcast,270,2012-09-06 22:33:00
5:53 PM,62.6,50.0,63,29.88,10.0,West,9.2,-,N/A,,Scattered Clouds,270,2012-09-06 22:53:00
6:13 PM,62.6,48.2,59,29.88,10.0,West,10.4,18.4,N/A,,Clear,270,2012-09-06 23:13:00
6:33 PM,60.8,48.2,63,29.88,10.0,West,9.2,-,N/A,,Clear,270,2012-09-06 23:33:00
6:52 PM,60.8,48.2,63,29.88,10.0,West,8.1,-,N/A,,Clear,260,2012-09-06 23:52:00
7:13 PM,59.0,48.2,67,29.88,10.0,WSW,4.6,-,N/A,,Clear,250,2012-09-07 00:13:00
7:33 PM,57.2,48.2,72,29.88,10.0,West,3.5,-,N/A,,Scattered Clouds,270,2012-09-07 00:33:00
7:52 PM,57.2,48.2,72,29.89,10.0,Calm,Calm,-,N/A,,Scattered Clouds,0,2012-09-07 00:52:00
8:13 PM,55.4,48.2,77,29.89,10.0,West,4.6,-,N/A,,Clear,260,2012-09-07 01:13:00
8:32 PM,55.4,48.2,77,29.90,10.0,West,3.5,-,N/A,,Mostly Cloudy,270,2012-09-07 01:32:00
8:53 PM,55.4,48.2,77,29.90,10.0,WSW,3.5,-,N/A,,Scattered Clouds,250,2012-09-07 01:53:00
9:12 PM,53.6,48.2,82,29.90,10.0,Calm,Calm,-,N/A,,Scattered Clouds,0,2012-09-07 02:12:00
9:33 PM,55.4,48.2,77,29.89,10.0,WSW,4.6,-,N/A,,Mostly Cloudy,250,2012-09-07 02:33:00
9:53 PM,55.4,51.8,88,29.89,10.0,West,5.8,-,N/A,Rain,Light Rain,260,2012-09-07 02:53:00
10:12 PM,55.4,51.8,88,29.90,10.0,West,5.8,-,N/A,,Mostly Cloudy,260,2012-09-07 03:12:00
10:33 PM,53.6,51.8,94,29.90,10.0,West,5.8,-,N/A,,Scattered Clouds,270,2012-09-07 03:33:00
10:53 PM,53.6,50.0,88,29.90,10.0,West,4.6,-,N/A,,Clear,270,2012-09-07 03:53:00
11:12 PM,51.8,50.0,94,29.91,10.0,West,3.5,-,N/A,,Clear,270,2012-09-07 04:12:00
11:33 PM,51.8,50.0,94,29.91,10.0,Calm,Calm,-,N/A,,Clear,0,2012-09-07 04:33:00
11:53 PM,51.8,50.0,94,29.90,10.0,Calm,Calm,-,N/A,,Scattered Clouds,0,2012-09-07 04:53:00